| time (UTC) | temp F | wind direction | speed MPH | gust MPH | rain 1hr in | rain 24hr in | rain mn in | humidity % | barometer mb |
| 20260905110100 | 73 | 49 | 1.0 | 4.0 | 0.00 | 0.31 | 0.00 | 83 | 1015.0 |
| 20260905104555 | 74 | 42 | 2.0 | 4.0 | 0.00 | 0.31 | 0.00 | 82 | 1015.0 |
| 20260905103053 | 75 | 110 | 1.0 | 4.0 | 0.00 | 0.31 | 0.00 | 79 | 1014.8 |
| 20260905101600 | 75 | 139 | 4.0 | 7.0 | 0.00 | 0.31 | 0.00 | 78 | 1014.8 |
| 20260905100058 | 75 | 134 | 4.0 | 7.0 | 0.00 | 0.31 | 0.00 | 79 | 1014.8 |
| 20260905094551 | 75 | 131 | 3.0 | 8.0 | 0.00 | 0.31 | 0.00 | 79 | 1014.9 |
| 20260905093051 | 75 | 142 | 3.0 | 7.0 | 0.00 | 0.31 | 0.00 | 78 | 1014.9 |
| 20260905091619 | 75 | 140 | 3.0 | 7.0 | 0.00 | 0.31 | 0.00 | 79 | 1014.9 |
| 20260905090119 | 75 | 184 | 2.0 | 3.0 | 0.00 | 0.31 | 0.00 | 80 | 1014.7 |
| 20260905084606 | 74 | 184 | 2.0 | 4.0 | 0.00 | 0.31 | 0.00 | 80 | 1014.7 |
| 20260905083049 | 75 | 185 | 2.0 | 7.0 | 0.00 | 0.31 | 0.00 | 79 | 1014.7 |
| 20260905081544 | 75 | 169 | 4.0 | 6.0 | 0.00 | 0.31 | 0.00 | 79 | 1014.7 |
| 20260905080101 | 75 | 188 | 0.0 | 2.0 | 0.00 | 0.31 | 0.00 | 79 | 1014.7 |
| 20260905074559 | 76 | 183 | 4.0 | 8.0 | 0.00 | 0.31 | 0.00 | 78 | 1014.8 |
| 20260905073055 | 75 | 182 | 4.0 | 8.0 | 0.00 | 0.31 | 0.00 | 81 | 1014.8 |
| 20260905071549 | 73 | 254 | 2.0 | 8.0 | 0.00 | 0.31 | 0.00 | 86 | 1014.9 |
| 20260905070047 | 73 | 126 | 2.0 | 4.0 | 0.00 | 0.31 | 0.00 | 87 | 1014.9 |
| 20260905064554 | 72 | 0 | 0.0 | 5.0 | 0.00 | 0.31 | 0.00 | 89 | 1015.0 |
| 20260905063051 | 73 | 33 | 3.0 | 4.0 | 0.00 | 0.31 | 0.00 | 88 | 1015.0 |
| 20260905061620 | 74 | 34 | 1.0 | 3.0 | 0.00 | 0.31 | 0.00 | 88 | 1014.9 |
| 20260905060106 | 74 | 78 | 1.0 | 2.0 | 0.00 | 0.31 | 0.00 | 86 | 1014.7 |
| 20260905054553 | 75 | 0 | 0.0 | 3.0 | 0.00 | 0.31 | 0.00 | 83 | 1014.5 |
| 20260905053057 | 75 | 107 | 2.0 | 6.0 | 0.00 | 0.31 | 0.00 | 82 | 1014.5 |
| 20260905051553 | 74 | 105 | 2.0 | 4.0 | 0.00 | 0.31 | 0.00 | 84 | 1014.4 |
| 20260905050050 | 75 | 157 | 1.0 | 3.0 | 0.00 | 0.31 | 0.00 | 82 | 1014.7 |
| 20260905044558 | 75 | 139 | 1.0 | 4.0 | 0.00 | 0.31 | 0.31 | 81 | 1014.8 |
| 20260905043055 | 76 | 0 | 0.0 | 0.0 | 0.00 | 0.31 | 0.31 | 82 | 1014.7 |
| 20260905041601 | 76 | 0 | 0.0 | 2.0 | 0.00 | 0.31 | 0.31 | 82 | 1014.6 |
| 20260905040058 | 76 | 0 | 0.0 | 1.0 | 0.00 | 0.31 | 0.31 | 83 | 1014.8 |
| 20260905034607 | 76 | 0 | 0.0 | 2.0 | 0.00 | 0.31 | 0.31 | 82 | 1015.0 |
| 20260905033100 | 76 | 223 | 1.0 | 2.0 | 0.00 | 0.31 | 0.31 | 82 | 1014.8 |
| 20260905031604 | 77 | 0 | 0.0 | 3.0 | 0.00 | 0.31 | 0.31 | 80 | 1014.6 |
| 20260905030057 | 76 | 163 | 2.0 | 6.0 | 0.00 | 0.31 | 0.31 | 81 | 1014.5 |
| 20260905024549 | 77 | 142 | 5.0 | 9.0 | 0.00 | 0.31 | 0.31 | 81 | 1014.2 |
| 20260905023104 | 77 | 115 | 7.0 | 9.0 | 0.00 | 0.31 | 0.31 | 82 | 1014.0 |
| 20260905021559 | 77 | 126 | 3.0 | 5.0 | 0.00 | 0.31 | 0.31 | 80 | 1013.9 |
| 20260905020057 | 78 | 113 | 3.0 | 6.0 | 0.00 | 0.31 | 0.31 | 78 | 1013.7 |
| 20260905014554 | 78 | 177 | 3.0 | 6.0 | 0.00 | 0.31 | 0.31 | 78 | 1013.8 |
| 20260905013104 | 78 | 189 | 6.0 | 9.0 | 0.00 | 0.31 | 0.31 | 77 | 1013.9 |
| 20260905011603 | 79 | 194 | 6.0 | 9.0 | 0.00 | 0.31 | 0.31 | 77 | 1013.8 |
| 20260905010105 | 79 | 193 | 6.0 | 9.0 | 0.00 | 0.31 | 0.31 | 75 | 1014.0 |
| 20260905004554 | 80 | 234 | 3.0 | 7.0 | 0.00 | 0.31 | 0.31 | 76 | 1014.1 |
| 20260905003050 | 81 | 157 | 1.0 | 5.0 | 0.00 | 0.31 | 0.31 | 70 | 1014.0 |
| 20260905001605 | 81 | 155 | 4.0 | 11.0 | 0.00 | 0.31 | 0.31 | 71 | 1014.1 |
| 20260905000112 | 81 | 190 | 8.0 | 18.0 | 0.00 | 0.31 | 0.31 | 71 | 1014.0 |
| 20260904234554 | 80 | 170 | 11.0 | 20.0 | 0.00 | 0.31 | 0.31 | 73 | 1013.7 |
| 20260904233116 | 81 | 158 | 14.0 | 20.0 | 0.00 | 0.31 | 0.31 | 70 | 1013.8 |
| 20260904231606 | 80 | 140 | 14.0 | 25.0 | 0.00 | 0.31 | 0.31 | 69 | 1013.3 |
| 20260904224557 | 83 | 161 | 16.0 | 26.0 | 0.01 | 0.31 | 0.31 | 71 | 1013.1 |
| 20260904223112 | 83 | 161 | 15.0 | 19.0 | 0.05 | 0.31 | 0.31 | 73 | 1012.3 |
| 20260904221601 | 82 | 146 | 10.0 | 18.0 | 0.31 | 0.31 | 0.31 | 72 | 1012.1 |
| 20260904220058 | 79 | 114 | 11.0 | 24.0 | 0.31 | 0.31 | 0.31 | 77 | 1012.7 |
| 20260904214602 | 77 | 49 | 5.0 | 15.0 | 0.30 | 0.30 | 0.30 | 79 | 1012.3 |
| 20260904213050 | 79 | 46 | 12.0 | 29.0 | 0.25 | 0.25 | 0.25 | 75 | 1012.9 |
| 20260904211558 | 82 | 54 | 11.0 | 20.0 | 0.00 | 0.00 | 0.00 | 66 | 1013.3 |
| 20260904204559 | 84 | 167 | 25.0 | 37.0 | 0.00 | 0.00 | 0.00 | 56 | 1012.7 |
| 20260904203104 | 92 | 171 | 17.0 | 28.0 | 0.00 | 0.00 | 0.00 | 53 | 1012.9 |
| 20260904201559 | 95 | 161 | 10.0 | 21.0 | 0.00 | 0.00 | 0.00 | 47 | 1012.8 |
| 20260904200055 | 96 | 144 | 2.0 | 11.0 | 0.00 | 0.00 | 0.00 | 43 | 1012.9 |
| 20260904194558 | 96 | 153 | 2.0 | 10.0 | 0.00 | 0.00 | 0.00 | 44 | 1013.1 |
| 20260904193116 | 99 | 161 | 4.0 | 8.0 | 0.00 | 0.00 | 0.00 | 42 | 1013.3 |
| 20260904191556 | 98 | 300 | 4.0 | 8.0 | 0.00 | 0.00 | 0.00 | 43 | 1013.7 |
| 20260904190058 | 96 | 244 | 4.0 | 14.0 | 0.00 | 0.00 | 0.00 | 46 | 1014.0 |
| 20260904184558 | 95 | 170 | 4.0 | 12.0 | 0.00 | 0.00 | 0.00 | 47 | 1014.2 |
| 20260904183056 | 95 | 88 | 8.0 | 14.0 | 0.00 | 0.00 | 0.00 | 47 | 1014.2 |
| 20260904181553 | 94 | 163 | 8.0 | 14.0 | 0.00 | 0.00 | 0.00 | 49 | 1014.4 |
| 20260904180103 | 94 | 198 | 5.0 | 14.0 | 0.00 | 0.00 | 0.00 | 49 | 1014.9 |
| 20260904174556 | 93 | 162 | 10.0 | 17.0 | 0.00 | 0.00 | 0.00 | 51 | 1015.1 |
| 20260904173057 | 92 | 157 | 10.0 | 15.0 | 0.00 | 0.00 | 0.00 | 53 | 1015.2 |
| 20260904171555 | 91 | 173 | 8.0 | 18.0 | 0.00 | 0.00 | 0.00 | 54 | 1015.4 |
| 20260904170056 | 91 | 174 | 7.0 | 15.0 | 0.00 | 0.00 | 0.00 | 55 | 1015.4 |
| 20260904164556 | 91 | 174 | 10.0 | 17.0 | 0.00 | 0.00 | 0.00 | 56 | 1015.4 |
| 20260904163105 | 89 | 148 | 8.0 | 16.0 | 0.00 | 0.00 | 0.00 | 57 | 1015.6 |
| 20260904161610 | 89 | 167 | 9.0 | 16.0 | 0.00 | 0.00 | 0.00 | 58 | 1015.6 |
| 20260904160103 | 87 | 166 | 7.0 | 16.0 | 0.00 | 0.00 | 0.00 | 61 | 1015.7 |
| 20260904154556 | 86 | 188 | 4.0 | 10.0 | 0.00 | 0.00 | 0.00 | 62 | 1015.7 |
| 20260904153057 | 85 | 175 | 8.0 | 14.0 | 0.00 | 0.00 | 0.00 | 63 | 1015.7 |
| 20260904151605 | 84 | 175 | 6.0 | 10.0 | 0.00 | 0.00 | 0.00 | 65 | 1015.6 |
| 20260904150057 | 83 | 202 | 4.0 | 8.0 | 0.00 | 0.00 | 0.00 | 68 | 1015.7 |
| 20260904144609 | 82 | 151 | 4.0 | 8.0 | 0.00 | 0.00 | 0.00 | 72 | 1015.5 |
| 20260904143058 | 81 | 220 | 3.0 | 9.0 | 0.00 | 0.00 | 0.00 | 74 | 1015.3 |
| 20260904141604 | 80 | 165 | 4.0 | 8.0 | 0.00 | 0.00 | 0.00 | 76 | 1015.1 |
| 20260904140059 | 79 | 198 | 4.0 | 7.0 | 0.00 | 0.00 | 0.00 | 77 | 1015.1 |
| 20260904134603 | 78 | 192 | 3.0 | 7.0 | 0.00 | 0.00 | 0.00 | 79 | 1014.8 |
| 20260904133056 | 78 | 209 | 4.0 | 8.0 | 0.00 | 0.00 | 0.00 | 79 | 1014.7 |
| 20260904131556 | 78 | 170 | 5.0 | 10.0 | 0.00 | 0.00 | 0.00 | 79 | 1014.4 |
| 20260904130058 | 77 | 186 | 4.0 | 8.0 | 0.00 | 0.00 | 0.00 | 79 | 1014.1 |
| 20260904124557 | 77 | 213 | 5.0 | 10.0 | 0.00 | 0.00 | 0.00 | 79 | 1013.9 |
| 20260904123048 | 77 | 217 | 5.0 | 13.0 | 0.00 | 0.00 | 0.00 | 78 | 1013.8 |
| 20260904121552 | 77 | 206 | 7.0 | 11.0 | 0.00 | 0.00 | 0.00 | 78 | 1013.8 |
| 20260904120105 | 77 | 190 | 6.0 | 9.0 | 0.00 | 0.00 | 0.00 | 77 | 1013.7 |
| 20260904114553 | 78 | 202 | 8.0 | 14.0 | 0.00 | 0.00 | 0.00 | 75 | 1013.6 |
| 20260904113047 | 78 | 205 | 7.0 | 14.0 | 0.00 | 0.00 | 0.00 | 73 | 1013.5 |
| 20260904111546 | 78 | 212 | 7.0 | 14.0 | 0.00 | 0.00 | 0.00 | 72 | 1013.5 |